• In Russia
  • List of Countries
  • For 7 days
  • Water Temperature
  • Weather Map
  • Weather Widgets
  • user-avatar
    Login

    Hourly Weather Kanye

    Today, 12 December, Thursday

    Time Temperature Precipitation Wind Pressure Humidity
    00:00 +22°C° 0 mm 1 mps 649 mmHg 52%
    01:00 +21°C° 0 mm 1 mps 649 mmHg 53%
    02:00 +21°C° 0 mm 1 mps 649 mmHg 54%
    03:00 +20°C° 0 mm 1 mps 649 mmHg 55%
    04:00 +20°C° 0 mm 1 mps 649 mmHg 56%
    05:00 +20°C° 0 mm 1 mps 649 mmHg 57%
    06:00 +22°C° 0 mm 1 mps 650 mmHg 52%
    07:00 +23°C° 0 mm 1 mps 651 mmHg 48%
    08:00 +25°C° 0 mm 2 mps 651 mmHg 43%
    09:00 +27°C° 0 mm 2 mps 652 mmHg 39%
    10:00 +28°C° 0 mm 2 mps 652 mmHg 36%
    11:00 +29°C° 0 mm 2 mps 652 mmHg 32%
    12:00 +30°C° 0 mm 2 mps 652 mmHg 29%
    13:00 +31°C° 0 mm 1 mps 652 mmHg 26%
    14:00 +32°C° 0 mm 1 mps 651 mmHg 23%
    15:00 +31°C° 0 mm 1 mps 651 mmHg 23%
    16:00 +31°C° 0 mm 2 mps 651 mmHg 24%
    17:00 +31°C° 0 mm 2 mps 650 mmHg 24%
    18:00 +29°C° 0 mm 2 mps 650 mmHg 28%
    19:00 +28°C° 0 mm 2 mps 650 mmHg 33%
    20:00 +26°C° 0 mm 2 mps 650 mmHg 37%
    21:00 +25°C° 0 mm 2 mps 650 mmHg 38%
    22:00 +25°C° 0 mm 2 mps 650 mmHg 39%
    23:00 +24°C° 0 mm 3 mps 650 mmHg 41%

    Tomorrow, 13 December, Friday

    Time Temperature Precipitation Wind Pressure Humidity
    00:00 +24°C° 0 mm 2 mps 650 mmHg 42%
    01:00 +23°C° 0 mm 2 mps 650 mmHg 43%
    02:00 +23°C° 0 mm 2 mps 649 mmHg 44%
    03:00 +21°C° 0 mm 3 mps 650 mmHg 49%
    04:00 +20°C° 0 mm 4 mps 650 mmHg 54%
    05:00 +20°C° 0 mm 5 mps 650 mmHg 59%
    06:00 +20°C° 0 mm 6 mps 651 mmHg 64%
    07:00 +21°C° 0 mm 7 mps 651 mmHg 68%
    08:00 +22°C° 0 mm 8 mps 652 mmHg 72%
    09:00 +23°C° 0 mm 7 mps 652 mmHg 67%
    10:00 +24°C° 0 mm 7 mps 653 mmHg 62%
    11:00 +27°C° 0 mm 7 mps 653 mmHg 57%
    12:00 +28°C° 0 mm 6 mps 653 mmHg 49%
    13:00 +30°C° 0 mm 5 mps 652 mmHg 41%
    14:00 +33°C° 0 mm 4 mps 652 mmHg 33%
    15:00 +33°C° 0 mm 4 mps 652 mmHg 32%
    16:00 +31°C° 0 mm 3 mps 651 mmHg 32%
    17:00 +31°C° 0 mm 3 mps 651 mmHg 31%
    18:00 +30°C° 0 mm 3 mps 651 mmHg 34%
    19:00 +29°C° 0 mm 3 mps 651 mmHg 37%
    20:00 +27°C° 0 mm 4 mps 651 mmHg 40%
    21:00 +26°C° 0 mm 4 mps 651 mmHg 44%
    22:00 +25°C° 0 mm 5 mps 651 mmHg 48%
    23:00 +23°C° 0 mm 5 mps 651 mmHg 52%

    Day after tomorrow, 14 December, Saturday

    Time Temperature Precipitation Wind Pressure Humidity
    00:00 +23°C° 0 mm 5 mps 650 mmHg 55%
    01:00 +22°C° 0 mm 5 mps 650 mmHg 58%
    02:00 +21°C° 0 mm 5 mps 650 mmHg 61%
    03:00 +21°C° 0 mm 5 mps 650 mmHg 63%
    04:00 +20°C° 0 mm 5 mps 650 mmHg 65%
    05:00 +20°C° 0 mm 6 mps 650 mmHg 67%
    06:00 +21°C° 0 mm 6 mps 651 mmHg 66%
    07:00 +21°C° 0 mm 6 mps 651 mmHg 65%
    08:00 +22°C° 0 mm 6 mps 652 mmHg 63%
    09:00 +24°C° 0 mm 6 mps 652 mmHg 56%
    10:00 +28°C° 0 mm 6 mps 653 mmHg 48%
    11:00 +30°C° 0 mm 5 mps 653 mmHg 40%
    12:00 +32°C° 0 mm 5 mps 653 mmHg 36%
    13:00 +34°C° 0 mm 5 mps 653 mmHg 31%
    14:00 +35°C° 0 mm 5 mps 652 mmHg 26%
    15:00 +35°C° 0 mm 4 mps 652 mmHg 26%
    16:00 +34°C° 0 mm 4 mps 651 mmHg 26%
    17:00 +34°C° 0 mm 3 mps 650 mmHg 26%
    18:00 +33°C° 0 mm 3 mps 650 mmHg 28%
    19:00 +30°C° 0 mm 2 mps 650 mmHg 30%
    20:00 +29°C° 0 mm 2 mps 650 mmHg 32%
    21:00 +28°C° 0 mm 2 mps 650 mmHg 33%
    22:00 +28°C° 0 mm 2 mps 650 mmHg 34%
    23:00 +27°C° 0 mm 2 mps 651 mmHg 35%

    15 December, Sunday

    Time Temperature Precipitation Wind Pressure Humidity
    00:00 +27°C° 0 mm 2 mps 651 mmHg 35%
    01:00 +26°C° 0 mm 2 mps 651 mmHg 34%
    02:00 +26°C° 0 mm 1 mps 650 mmHg 34%
    03:00 +25°C° 0 mm 1 mps 650 mmHg 35%
    04:00 +25°C° 0 mm 1 mps 650 mmHg 37%
    05:00 +24°C° 0 mm 1 mps 650 mmHg 38%
    06:00 +26°C° 0 mm 1 mps 651 mmHg 34%
    07:00 +28°C° 0 mm 1 mps 652 mmHg 30%
    08:00 +29°C° 0 mm 1 mps 652 mmHg 27%
    09:00 +31°C° 0 mm 2 mps 653 mmHg 25%
    10:00 +34°C° 0 mm 3 mps 653 mmHg 24%
    11:00 +35°C° 0 mm 3 mps 653 mmHg 23%
    12:00 +35°C° 0 mm 4 mps 653 mmHg 22%
    13:00 +35°C° 0 mm 4 mps 652 mmHg 22%
    14:00 +35°C° 0 mm 4 mps 652 mmHg 22%
    15:00 +35°C° 0 mm 3 mps 651 mmHg 22%
    16:00 +35°C° 0 mm 3 mps 651 mmHg 22%
    17:00 +34°C° 0 mm 3 mps 651 mmHg 23%
    18:00 +32°C° 0 mm 2 mps 651 mmHg 24%
    19:00 +30°C° 0 mm 2 mps 650 mmHg 25%
    20:00 +28°C° 0 mm 2 mps 650 mmHg 26%
    21:00 +27°C° 0 mm 2 mps 650 mmHg 27%
    22:00 +27°C° 0 mm 1 mps 651 mmHg 28%
    23:00 +26°C° 0 mm 1 mps 651 mmHg 29%

    16 December, Monday

    Time Temperature Precipitation Wind Pressure Humidity
    00:00 +25°C° 0 mm 2 mps 650 mmHg 28%
    01:00 +24°C° 0 mm 2 mps 650 mmHg 26%
    02:00 +24°C° 0 mm 2 mps 650 mmHg 25%
    03:00 +23°C° 0 mm 2 mps 650 mmHg 27%
    04:00 +23°C° 0 mm 2 mps 650 mmHg 30%
    05:00 +21°C° 0 mm 2 mps 650 mmHg 33%
    06:00 +24°C° 0 mm 3 mps 651 mmHg 29%
    07:00 +26°C° 0 mm 4 mps 651 mmHg 26%
    08:00 +28°C° 0 mm 4 mps 652 mmHg 23%
    09:00 +30°C° 0 mm 5 mps 653 mmHg 23%
    10:00 +32°C° 0 mm 5 mps 653 mmHg 24%
    11:00 +34°C° 0 mm 6 mps 653 mmHg 25%
    12:00 +35°C° 0 mm 5 mps 653 mmHg 25%
    13:00 +35°C° 0 mm 5 mps 652 mmHg 24%
    14:00 +36°C° 0 mm 4 mps 652 mmHg 23%
    15:00 +34°C° 0.1 mm 5 mps 651 mmHg 28%
    16:00 +32°C° 0.1 mm 6 mps 650 mmHg 33%
    17:00 +29°C° 0.1 mm 7 mps 650 mmHg 39%
    18:00 +27°C° 0.1 mm 7 mps 650 mmHg 46%
    19:00 +24°C° 0.1 mm 7 mps 650 mmHg 52%
    20:00 +22°C° 0.1 mm 7 mps 651 mmHg 59%
    21:00 +21°C° 0.1 mm 7 mps 651 mmHg 66%
    22:00 +20°C° 0.1 mm 8 mps 651 mmHg 73%
    23:00 +18°C° 0.1 mm 9 mps 652 mmHg 80%

    17 December, Tuesday

    Time Temperature Precipitation Wind Pressure Humidity
    00:00 +18°C° 0 mm 8 mps 651 mmHg 79%
    01:00 +19°C° 0 mm 6 mps 651 mmHg 78%
    02:00 +19°C° 0 mm 5 mps 650 mmHg 77%
    03:00 +19°C° 0 mm 5 mps 651 mmHg 78%
    04:00 +19°C° 0 mm 5 mps 651 mmHg 78%
    05:00 +19°C° 0 mm 5 mps 651 mmHg 79%
    06:00 +20°C° 0 mm 5 mps 651 mmHg 77%
    07:00 +20°C° 0 mm 5 mps 652 mmHg 75%
    08:00 +20°C° 0 mm 5 mps 652 mmHg 73%
    09:00 +21°C° 0 mm 5 mps 652 mmHg 69%
    10:00 +22°C° 0 mm 5 mps 653 mmHg 65%
    11:00 +23°C° 0 mm 5 mps 653 mmHg 61%
    12:00 +25°C° 0 mm 4 mps 653 mmHg 56%
    13:00 +26°C° 0 mm 4 mps 652 mmHg 50%
    14:00 +27°C° 0 mm 3 mps 652 mmHg 45%
    15:00 +28°C° 0 mm 4 mps 652 mmHg 44%
    16:00 +28°C° 0 mm 4 mps 651 mmHg 42%
    17:00 +28°C° 0 mm 5 mps 650 mmHg 40%
    18:00 +27°C° 0 mm 4 mps 650 mmHg 45%
    19:00 +26°C° 0 mm 3 mps 649 mmHg 49%
    20:00 +24°C° 0 mm 2 mps 649 mmHg 53%
    21:00 +24°C° 0.2 mm 2 mps 649 mmHg 57%
    22:00 +23°C° 0.2 mm 2 mps 650 mmHg 62%
    23:00 +21°C° 0.2 mm 2 mps 650 mmHg 66%
    Show more